Zurück zum Katalog

FENGYUN 1C DEB

AktivSSO
NORAD 36262·DEBRIS·🇨🇳 China

Gestartet May 10, 1999 von Taiyuan Satellite Launch Center

Loading…

Nächste Überflüge (nächste 24 Stunden)

TLE

AktuellSource: Space-Track

Epoche: Sep 14, 2026, 23:11 UTC

1 36262U 99025DWP 26257.96633361  .00000328  00000-0  14764-3 0  9991
2 36262  98.9265 150.1468 0059853 193.5383 166.4195 14.28116628934396

Verfolge FENGYUN 1C DEB in Echtzeit mit AllMySat

Download on the App Store